Drummond Island, MI

3:08 PM EDT on September 25, 2016 (GMT -0400)
Drummond Island

Weather History for KDRM - March, 2014

Change the Weather History Date:

Thursday, March 13, 2014

  Actual Average (KCIU) Record (KCIU)
Temperature  
Mean Temperature 7 °F -  
Max Temperature 26 °F 33 °F 50 °F (1990)
Min Temperature -12 °F 9 °F -11 °F (1992)
Degree Days  
Heating Degree Days 58    
Moisture  
Dew Point 0 °F    
Average Humidity 71    
Maximum Humidity 85    
Minimum Humidity 54    
Precipitation  
Precipitation 0.00 in - - ()
Sea Level Pressure  
Sea Level Pressure 29.94 in    
Wind  
Wind Speed 2 mph (South)    
Max Wind Speed 9 mph    
Max Gust Speed -    
Visibility 10 miles    
Events Snow    
Averages and records for this station are not official NWS values.
T = Trace of Precipitation, MM = Missing Value Source: NWS Daily Summary

Daily Weather History Graph

Daily Weather History Graph

Search for Another Location

Airport or City:

Trip Planner

Search our weather history database for the weather conditions in past years. The results will help you decide how hot, cold, wet, or windy it might be!

Date:

Astronomy

Mar. 13, 2014 Rise Set
Actual Time 7:51 AM EDT 7:38 PM EDT
Civil Twilight 7:21 AM EDT 8:07 PM EDT
Nautical Twilight 6:47 AM EDT 8:42 PM EDT
Astronomical Twilight 6:11 AM EDT 9:18 PM EDT
Moon 4:56 PM EDT (3/13) 6:05 AM EDT (3/13)
Length of Visible Light 12h 46m
Length of Day
11h 46m
Waxing Gibbous, 91% of the Moon is Illuminated
Mar 13
Waxing Gibbous
Mar 16
Full
Mar 23
Last Quarter
Mar 30
New
Apr 7
First Quarter

Hourly Weather History & Observations

Time (EDT) Temp. Windchill Dew Point Humidity Pressure Visibility Wind Dir Wind Speed Gust Speed Precip Events Conditions
12:15 AM -0.0 °F - -5.6 °F 77% 30.05 in 10.0 mi Calm Calm - N/A   Clear
12:35 AM -1.1 °F - -5.8 °F 81% 30.05 in 10.0 mi Calm Calm - N/A   Clear
12:54 AM -2.7 °F - -6.7 °F 83% 30.05 in 10.0 mi Calm Calm - N/A   Clear
1:15 AM -3.1 °F - -8.0 °F 80% 30.05 in 10.0 mi Calm Calm - N/A   Clear
1:35 AM -3.5 °F - -7.1 °F 85% 30.04 in 10.0 mi Calm Calm - N/A   Clear
1:54 AM -4.9 °F - -8.7 °F 84% 30.04 in 10.0 mi Calm Calm - N/A   Clear
2:15 AM -5.3 °F - -9.0 °F 84% 30.03 in 10.0 mi Calm Calm - N/A   Clear
2:35 AM -6.7 °F - -10.7 °F 83% 30.03 in 10.0 mi Calm Calm - N/A   Clear
2:54 AM -6.7 °F - -10.7 °F 83% 30.03 in 10.0 mi Calm Calm - N/A   Clear
3:15 AM -7.2 °F - -11.2 °F 83% 30.03 in 10.0 mi Calm Calm - N/A   Clear
3:35 AM -7.4 °F - -11.6 °F 82% 30.03 in 10.0 mi Calm Calm - N/A   Clear
3:55 AM -8.0 °F - -12.5 °F 81% 30.02 in 10.0 mi Calm Calm - N/A   Clear
4:15 AM -8.9 °F - -13.5 °F 80% 30.01 in 10.0 mi Calm Calm - N/A   Clear
4:35 AM -9.4 °F - -14.1 °F 80% 30.02 in 10.0 mi Calm Calm - N/A   Clear
4:55 AM -10.5 °F - -15.3 °F 79% 30.01 in 10.0 mi Calm Calm - N/A   Clear
5:15 AM -9.6 °F - -14.4 °F 79% 30.03 in 10.0 mi Calm Calm - N/A   Clear
5:35 AM -9.4 °F - -13.9 °F 81% 30.03 in 10.0 mi Calm Calm - N/A   Clear
5:55 AM -10.5 °F - -15.3 °F 79% 30.03 in 10.0 mi Calm Calm - N/A   Clear
6:15 AM -10.5 °F - -15.3 °F 79% 30.03 in 10.0 mi Calm Calm - N/A   Clear
6:34 AM -10.3 °F - -15.3 °F 78% 30.04 in 10.0 mi Calm Calm - N/A   Clear
6:55 AM -10.3 °F - -14.8 °F 81% 30.04 in 10.0 mi Calm Calm - N/A   Clear
7:15 AM -12.3 °F - -17.7 °F 77% 30.04 in 10.0 mi Calm Calm - N/A   Clear
7:34 AM -12.3 °F - -17.5 °F 78% 30.03 in 10.0 mi Calm Calm - N/A   Clear
7:55 AM -12.3 °F - -17.7 °F 77% 30.04 in 10.0 mi Calm Calm - N/A   Clear
8:15 AM -12.1 °F - -17.5 °F 77% 30.04 in 10.0 mi Calm Calm - N/A   Clear
8:35 AM -11.0 °F - -16.1 °F 78% 30.04 in 10.0 mi Calm Calm - N/A   Clear
8:55 AM -8.7 °F - -13.7 °F 79% 30.04 in 10.0 mi Calm Calm - N/A   Clear
9:15 AM -5.8 °F - -11.0 °F 78% 30.03 in 10.0 mi Calm Calm - N/A   Scattered Clouds
9:35 AM -2.2 °F - -7.1 °F 80% 30.03 in 10.0 mi Calm Calm - N/A   Clear
9:55 AM 2.7 °F - -2.9 °F 78% 30.03 in 10.0 mi Calm Calm - N/A   Clear
10:14 AM 5.2 °F - -3.5 °F 68% 30.02 in 10.0 mi Calm Calm - N/A   Scattered Clouds
10:35 AM 7.5 °F - -2.6 °F 63% 30.03 in 10.0 mi Calm Calm - N/A   Scattered Clouds
10:55 AM 7.2 °F - -1.8 °F 67% 30.02 in 10.0 mi Calm Calm - N/A   Mostly Cloudy
11:15 AM 10.0 °F - 1.0 °F 67% 30.02 in 10.0 mi Calm Calm - N/A   Overcast
11:35 AM 12.4 °F - 3.2 °F 67% 30.02 in 7.0 mi Calm Calm - N/A Snow Light Snow
11:54 AM 11.8 °F 2.5 °F 3.6 °F 69% 30.00 in 10.0 mi SSW 5.8 mph - N/A Snow Light Snow
12:15 PM 12.2 °F 4.3 °F 4.1 °F 70% 30.00 in 10.0 mi SSW 4.6 mph - N/A   Overcast
12:35 PM 12.9 °F 5.2 °F 4.3 °F 68% 29.99 in 10.0 mi SSW 4.6 mph - N/A   Mostly Cloudy
12:54 PM 13.1 °F 1.8 °F 3.6 °F 66% 29.98 in 10.0 mi South 8.1 mph - N/A   Overcast
1:15 PM 14.0 °F 5.1 °F 4.1 °F 65% 29.98 in 10.0 mi SW 5.8 mph - N/A   Mostly Cloudy
1:35 PM 14.9 °F 4.0 °F 4.8 °F 64% 29.97 in 10.0 mi South 8.1 mph - N/A   Overcast
1:55 PM 15.4 °F 4.6 °F 4.8 °F 63% 29.95 in 10.0 mi South 8.1 mph - N/A   Overcast
2:15 PM 15.8 °F 5.1 °F 2.7 °F 56% 29.93 in 10.0 mi South 8.1 mph - N/A   Overcast
2:35 PM 16.5 °F 6.9 °F 3.7 °F 57% 29.92 in 10.0 mi South 6.9 mph - N/A   Mostly Cloudy
2:55 PM 17.6 °F 9.3 °F 4.1 °F 56% 29.91 in 10.0 mi South 5.8 mph - N/A   Mostly Cloudy
3:15 PM 17.8 °F 9.6 °F 4.1 °F 55% 29.89 in 10.0 mi South 5.8 mph - N/A   Scattered Clouds
3:34 PM 18.5 °F 9.3 °F 5.0 °F 56% 29.88 in 10.0 mi SSW 6.9 mph - N/A   Scattered Clouds
3:55 PM 19.4 °F 8.6 °F 5.0 °F 54% 29.88 in 10.0 mi South 9.2 mph - N/A   Mostly Cloudy
4:15 PM 20.3 °F 12.5 °F 6.3 °F 55% 29.87 in 10.0 mi South 5.8 mph - N/A   Overcast
4:34 PM 19.8 °F 11.9 °F 6.6 °F 57% 29.87 in 10.0 mi SSE 5.8 mph - N/A   Overcast
4:55 PM 20.1 °F 10.3 °F 6.6 °F 56% 29.87 in 10.0 mi SSE 8.1 mph - N/A   Overcast
5:15 PM 20.5 °F 11.7 °F 6.6 °F 55% 29.86 in 10.0 mi SSE 6.9 mph - N/A   Overcast
5:35 PM 20.7 °F 11.9 °F 8.8 °F 60% 29.85 in 10.0 mi SSE 6.9 mph - N/A   Overcast
5:55 PM 20.7 °F 11.0 °F 9.7 °F 63% 29.84 in 10.0 mi SE 8.1 mph - N/A   Overcast
6:15 PM 21.2 °F 13.6 °F 9.3 °F 60% 29.84 in 10.0 mi SE 5.8 mph - N/A   Overcast
6:35 PM 21.2 °F 14.9 °F 11.1 °F 65% 29.84 in 10.0 mi SE 4.6 mph - N/A   Overcast
6:55 PM 21.2 °F 14.9 °F 11.7 °F 67% 29.83 in 10.0 mi SE 4.6 mph - N/A   Overcast
7:14 PM 21.7 °F 15.5 °F 11.8 °F 66% 29.83 in 10.0 mi ESE 4.6 mph - N/A   Overcast
7:35 PM 21.7 °F 15.5 °F 12.9 °F 69% 29.82 in 10.0 mi SE 4.6 mph - N/A   Overcast
7:55 PM 21.9 °F 15.7 °F 13.1 °F 69% 29.82 in 10.0 mi SE 4.6 mph - N/A   Overcast
8:15 PM 22.1 °F - 13.6 °F 70% 29.81 in 10.0 mi Calm Calm - N/A   Overcast
8:35 PM 22.1 °F - 14.2 °F 72% 29.81 in 10.0 mi Calm Calm - N/A   Overcast
8:55 PM 22.1 °F - 14.7 °F 73% 29.80 in 10.0 mi Calm Calm - N/A   Overcast
9:15 PM 22.6 °F - 14.7 °F 72% 29.79 in 10.0 mi Calm Calm - N/A   Overcast
9:35 PM 22.3 °F - 14.9 °F 73% 29.79 in 10.0 mi Calm Calm - N/A   Overcast
9:55 PM 21.9 °F - 14.9 °F 74% 29.79 in 10.0 mi Calm Calm - N/A   Overcast
10:15 PM 21.7 °F - 15.4 °F 77% 29.78 in 10.0 mi Calm Calm - N/A   Overcast
10:35 PM 23.4 °F 18.9 °F 14.9 °F 70% 29.77 in 10.0 mi South 3.5 mph - N/A   Overcast
10:55 PM 25.5 °F 19.9 °F 14.9 °F 64% 29.76 in 10.0 mi SSW 4.6 mph - N/A   Overcast
11:14 PM 26.1 °F 21.9 °F 15.8 °F 65% 29.75 in 10.0 mi SSW 3.5 mph - N/A   Overcast
11:35 PM 26.6 °F 21.2 °F 16.5 °F 66% 29.75 in 10.0 mi SSW 4.6 mph - N/A   Overcast
11:55 PM 26.6 °F 19.1 °F 17.2 °F 68% 29.73 in 10.0 mi South 6.9 mph - N/A   Overcast